Find Starlink 30324

NORAD ID: 57640 Int'l Des: 2023-122 Owner: SPXS Country: US Constellation: starlink operational
LEOCIRCULAR

Aktuelle Ansicht

3D-Globus wird geladen...

Über Starlink 30324

Beschreibung wird geladen...

Nächste Überflüge

Passes for default location (London). Set your location on the main map for personalized predictions.

Höhenverlauf

Loading altitude history...

Zweizeiliger Elementsatz

1 57640U 23122J 26146.03871180 .00002619 00000-0 10466-3 0 9997
2 57640 43.0048 15.9205 0001477 274.8989 85.1694 15.27585675154027
Epoch: 26. Mai 2026 • Age: 19 hours

Aktueller Status

Höhe 491.9 km
Geschwindigkeit 7.62 km/s
Subsatellitenpunkt -34.46°S, 147.37°E
Startdatum 17. Aug. 2023
Alter 2.7 years
Typ internet

Technische Details

Klassifizierung Payload
Masse 730.00 kg
Trockenmasse 700.00 kg
Gesamtmasse 730.00 kg
Länge 0.30 m
Durchmesser 4.10 m
Spannweite 29.00 m
Form Box + pan
Hersteller SPXS
Bus-Typ Starlink V2M
Phasenstatus In Orbit
Besitzer/Staat SPXS/US

Most Searched